Regional Weather Roundup
Issued by NWS

Home | Current Version | Previous Version | Text Only | Print | Product List | Glossary Off
Versions: 1 2 3 4 5 6 7 8 9 10 11 12 13 14 15 16 17 18 19 20 21 22 23 24 25 26 27 28 29 30 31 32 33 34 35 36 37 38 39 40 41 42 43 44 45 46 47 48 49 50

000
ASUS43 KMKX 012311
RWRWI

WISCONSIN REGIONAL WEATHER ROUNDUP
NATIONAL WEATHER SERVICE MILWAUKEE/SULLIVAN WI
600 PM CDT SAT AUG 01 2015

NOTE: "FAIR" INDICATES FEW OR NO CLOUDS BELOW 12,000 FEET WITH NO
SIGNIFICANT WEATHER AND/OR OBSTRUCTIONS TO VISIBILITY.

WIZ001-002-006>008-014>016-023>028-020000-
NORTHWEST WISCONSIN

CITY           SKY/WX    TMP DP  RH WIND       PRES   REMARKS
SUPERIOR ARPT  SUNNY     80  56  44 SW10      29.78F HX  80
ASHLAND        SUNNY     81  53  37 W8G18     29.80F HX  80
HAYWARD        PTSUNNY   79  52  38 SW7       29.85F
SIREN          MOSUNNY   80  54  40 W7        29.85S HX  80
CUMBERLAND     MOSUNNY   73  55  53 SW6       29.86F
RICE LAKE      MOSUNNY   77  57  49 SW5       29.87F
CHETEK         MOSUNNY   78  58  48 SW3       29.86F
LADYSMITH      PTSUNNY   77  54  44 SW7       29.89S
EAU CLAIRE     MOSUNNY   83  59  44 SW9       29.86F HX  83
MENOMONIE      MOSUNNY   83  57  41 SW10G16   29.87S HX  82
NEW RICHMOND   MOSUNNY   82  55  39 S6        29.85F HX  81
OSCEOLA        MOSUNNY   82  55  38 S5        29.86F HX  82
$$

WIZ003>005-009-010-017-018-020000-
NORTH CENTRAL WISCONSIN

CITY           SKY/WX    TMP DP  RH WIND       PRES   REMARKS
MANITOWISH WTR MOSUNNY   75  52  43 W9G17     29.85F
ARBOR VITAE    SUNNY     77  51  40 W13G18    29.86F
WOODRUFF       SUNNY     77  51  40 W13G18    29.86F
RHINELANDER    MOSUNNY   76  50  40 W13       29.88S
EAGLE RIVER    MOSUNNY   77  48  35 W13G20    29.85F
LAND O LAKES   MOSUNNY   77  44  31 W9        29.85F
PHILLIPS       MOSUNNY   76  54  45 W8        29.87S
TOMAHAWK       MOSUNNY   77  52  42 W10       29.88F
MEDFORD        SUNNY     76  56  51 W10       29.89F
MERRILL        NOT AVBL
$$

WIZ029-030-035-036-043>047-020000-
CENTRAL WISCONSIN

CITY           SKY/WX    TMP DP  RH WIND       PRES   REMARKS
WAUSAU         SUNNY     80  50  34 W14       29.86F HX  80
MOSINEE        NOT AVBL
MARSHFIELD     SUNNY     80  52  37 W9        29.89F HX  80
STEVENS POINT  SUNNY     79  52  38 W6        29.89S
WAUPACA        SUNNY     84  48  28 W9        29.87F HX  82
WAUTOMA        SUNNY     86  50  28 W13       29.87F HX  84
WISC RAPIDS    SUNNY     82  48  30 W13       29.89F HX  81
CAMP DOUGLAS   SUNNY     82  61  49 W9        29.88F HX  82
$$

WIZ011>013-019>022-031-037>040-048>050-020000-
NORTHEAST WISCONSIN

CITY           SKY/WX    TMP DP  RH WIND       PRES   REMARKS
ANTIGO         MOSUNNY   77  52  42 W14G21    29.88S
SHAWANO        SUNNY     82  49  31 W10G17    29.86S HX  80
OCONTO         SUNNY     82  51  33 W12G18    29.83F HX  81
STURGEON BAY   SUNNY     81  50  34 W13       29.86F HX  80
GREEN BAY      SUNNY     81  51  35 W9        29.86F HX  80
MANITOWOC      MOSUNNY   82  49  31 MISG      29.86F HX  81
APPLETON       MOSUNNY   81  45  28 W16       29.88F
CLINTONVILLE   SUNNY     81  46  30 W13       29.86F HX  80
OSHKOSH        SUNNY     83  52  34 W12       29.87F HX  82
$$

WIZ032>034-041-042-053>061-020000-
SOUTHWEST WISCONSIN

CITY           SKY/WX    TMP DP  RH WIND       PRES   REMARKS
LA CROSSE      SUNNY     86  60  41 W6        29.87F HX  86
SPARTA         SUNNY     84  56  38 W6        29.89F HX  83
VIROQUA        SUNNY     82  62  51 W6        29.92F HX  83
BOSCOBEL       MOSUNNY   88  64  44 W6        29.89F HX  89
PRAIRIE DU CHI MOSUNNY   87  57  37 W6        29.89S HX  85
PLATTEVILLE    PTSUNNY   84  62  48 W7        29.92F HX  85
$$

WIZ056-057-062-063-064-067-068-020000-
SOUTH CENTRAL WISCONSIN

CITY           SKY/WX    TMP DP  RH WIND       PRES   REMARKS
REEDSBURG      SUNNY     83  59  43 W9        29.89F HX  83
BARABOO/DELLS  SUNNY     84  52  32 W7        29.89F HX  82
LONE ROCK      SUNNY     86  60  41 W9        29.89F HX  86
MINERAL POINT  MOSUNNY   84  57  39 W6        29.92F HX  83
MADISON        MOSUNNY   84  59  42 VRB6      29.88F HX  84
MIDDLETON      SUNNY     85  54  34 W8        29.90F HX  83
WATERTOWN      SUNNY     82  60  46 W7        29.88F HX  82
MONROE         MOSUNNY   84  61  45 W9        29.91F HX  84
JANESVILLE     MOSUNNY   88  57  35 NW9       29.89F HX  86
$$

WIZ051-052-058>065-066-070>072-020000-
SOUTHEAST WISCONSIN

CITY           SKY/WX    TMP DP  RH WIND       PRES   REMARKS
MILWAUKEE      MOSUNNY   84  56  38 W12       29.89S HX  83
WAUKESHA       MOSUNNY   81  57  44 NW12      29.91F HX  81
MILWAUKEE/TIMM SUNNY     82  54  36 W14G21    29.89F HX  81
RACINE         SUNNY     79  55  43 SE9       29.91S
BURLINGTON     SUNNY     83  59  43 W8        29.89S HX  83
KENOSHA        MOSUNNY   82  62  50 CALM      29.89F HX  83
FOND DU LAC    SUNNY     83  54  36 W9        29.88F HX  82
SHEBOYGAN      SUNNY     81  55  40 W7        29.87F HX  81
WEST BEND      SUNNY     81  50  34 W9        29.88F HX  80
JUNEAU         SUNNY     80  58  47 W8        29.90F HX  81
$$

LSZ147-162-020000-
LAKE SUPERIOR

STATION/POSITION TIME  TEMP    WIND        PRES    WAVE
                       AIR SEA DIR/SP/G            HT/PER
                 (UTC) (F)     (DEG/KT/KT) (MB)    (FT/S)
W MID LAKE BUOY  2250   60 54  200/ 10/ 10 1007.7F   1/ 3
DEVILS ISLAND    2300   73     230/ 15/ 18 1007.7F
PORT WING        2200   80     250/  9/ 13 1009.1F
SAXON HARBOR     2240   82                 1008.8F
$$

LMZ867-665-643>646-020000-
LAKE MICHIGAN

STATION/POSITION TIME  TEMP    WIND        PRES    WAVE
                       AIR SEA DIR/SP/G            HT/PER
                 (UTC) (F)     (DEG/KT/KT) (MB)    (FT/S)
CHAMBERS ISLAND  2200   80     240/  6/ 11 1009.8F
S GREEN BAY BUOY 2200   74 72  250/ 10/ 12 1012.2
N MID LAKE BUOY  2250   71 69  200/ 14/ 14 1009.1F   1/ 3
NORTHPORT PIER   2240   80     270/  2/  9 1009.5F
SISTER BAY       2200   80     260/  8/  9   N/A
ALGOMA LAKESHORE 2212          270/ 12/ 15   N/A
KEWAUNEE LAKESHO 2200   80     290/  9/ 15 1010.7F
SHEBOYGAN LAKESH 2300   81     300/ 10/ 12 1011.3F
PORT WASHINGTON  2200   85     250/ 11/ 16 1012.5
ATWATER BUOY     2300   77 65  310/  6/  8 1013.3F
MILWAUKEE LAKESH 2200   81     300/ 14/ 19   N/A
KENOSHA   LAKESH 2300   75     140/ 10/ 11 1011.5F
$$

TC  - TEMPERATURE IN CELSIUS
VSB - VISIBILITY IN STATUTE MILES
WCI - WIND CHILL INDEX
HX  - HEAT INDEX



USA.gov is the U.S. government's official web portal to all federal, state and local government web resources and services.